This is the latest recevied weather packets stored in our database for station/object N9BID. If no packets are shown the sender has not sent any weather packets the latest 10 day(s).
| Time | Temp. | Humidity | Pressure | Rain* | Wind** | Luminosity | Snow |
|---|---|---|---|---|---|---|---|
| 1777733099 | 8.89° C | 53% | 1009.7 hPa | 0 mm | - | 500 W/m² | - |
| 1777732795 | 8.33° C | 53% | 1009.8 hPa | 0 mm | - | 478 W/m² | - |
| 1777732493 | 8.33° C | 52% | 1009.9 hPa | 0 mm | - | 428 W/m² | - |
| 1777732190 | 8.33° C | 53% | 1009.7 hPa | 0 mm | - | 384 W/m² | - |
| 1777731887 | 8.33° C | 53% | 1009.6 hPa | 0 mm | - | 402 W/m² | - |
| 1777731584 | 8.33° C | 51% | 1010 hPa | 0 mm | - | 424 W/m² | - |
| 1777731282 | 8.33° C | 50% | 1010 hPa | 0 mm | - | 409 W/m² | - |
| 1777730979 | 8.33° C | 53% | 1010 hPa | 0 mm | - | 376 W/m² | - |
| 1777730677 | 7.78° C | 53% | 1010 hPa | 0 mm | - | 349 W/m² | - |
| 1777730373 | 7.78° C | 52% | 1010.1 hPa | 0 mm | - | 331 W/m² | - |
| 1777730069 | 7.78° C | 52% | 1010.1 hPa | 0 mm | - | 324 W/m² | - |
| 1777729766 | 7.78° C | 50% | 1010.2 hPa | 0 mm | - | 312 W/m² | - |
| 1777729463 | 7.78° C | 53% | 1010.2 hPa | 0 mm | - | 82 W/m² | - |
| 1777729159 | 7.22° C | 53% | 1010.1 hPa | 0 mm | - | 265 W/m² | - |
| 1777728856 | 7.22° C | 51% | 1010.1 hPa | 0 mm | - | 242 W/m² | - |
| 1777728553 | 7.22° C | 55% | 1010.3 hPa | 0 mm | - | 235 W/m² | - |
| 1777728250 | 7.22° C | 58% | 1010.1 hPa | 0 mm | - | 63 W/m² | - |
| 1777727948 | 6.67° C | 54% | 1010.3 hPa | 0 mm | - | 48 W/m² | - |
| 1777727644 | 6.67° C | 56% | 1010.3 hPa | 0 mm | - | 49 W/m² | - |
| 1777727341 | 6.11° C | 58% | 1010.3 hPa | 0 mm | - | 139 W/m² | - |
| 1777727038 | 6.11° C | 62% | 1010.5 hPa | 0 mm | - | 47 W/m² | - |
| 1777726735 | 5.56° C | 65% | 1010.6 hPa | 0 mm | - | 46 W/m² | - |
| 1777726433 | 5° C | 62% | 1010.4 hPa | 0 mm | - | 60 W/m² | - |
| 1777726130 | 5° C | 68% | 1010.4 hPa | 0 mm | - | 45 W/m² | - |
| 1777725826 | 5° C | 71% | 1010.3 hPa | 0 mm | - | 116 W/m² | - |
* Rain latest hour (hover to see other rain measurements)
** Current wind speed in m/s (hover to see current wind gust speed)